[[{"header":{"parameterUnit":"m.s-1","parameterCategory":2,"la1":30.2991,"la2":30.254,"lo1":-89.0895,"lo2":-89.0444,"dy":0.0017,"dx":0.0017,"nx":28,"ny":28,"refTime":"2025-12-03T03:00:00:Z","depth":"0","parameterNumber":2,"parameterNumberName":"U-component_of_CURRENTS"},"data":[0,0,0,0,0,0,0,0,0,0,0,0,0,0,0,0,0,0,0,0,0,0,0,0,0,0,0,0,0,0,0,0,0,0,0,0,0,0,0,0,0,0,0,0,0,0,0,0,0,0,0,0,0,0,0,0,0,0,-0.352,-0.352,0,-0.3552,-0.3552,-0.3552,-0.3513,-0.3512,-0.3511,-0.351,-0.3455,-0.3454,-0.3454,0,0,0,0,0,0,0,0,0,0,0,0,0,-0.3425,-0.3427,-0.352,-0.352,-0.3521,-0.3552,-0.3552,-0.3552,-0.3513,-0.3512,-0.3511,-0.3509,-0.3455,-0.3454,-0.3454,0,0,0,0,0,0,0,0,0,0,0,0,0,-0.346,-0.3427,-0.352,-0.3508,-0.3507,-0.3552,-0.3552,-0.3552,-0.3514,-0.3512,-0.351,-0.3509,-0.3455,-0.3454,-0.3454,-0.3485,0,0,-0.3452,-0.3452,0,0,0,0,0,0,0,0,-0.3458,-0.3463,-0.3509,-0.3509,-0.3508,-0.353,-0.3499,-0.3527,-0.3514,-0.3508,-0.351,-0.3508,-0.3475,-0.3473,-0.3479,-0.3482,-0.348,-0.3452,-0.3452,-0.3451,-0.3451,0,0,0,0,0,0,0,-0.3455,-0.3461,-0.3529,-0.351,-0.351,-0.3501,-0.3504,-0.3504,-0.3497,-0.3508,-0.3506,-0.3516,-0.3473,-0.348,-0.3477,-0.3479,-0.3452,-0.3451,-0.3451,-0.3451,-0.3502,-0.3504,0,0,0,0,0,0,-0.346,-0.3459,-0.3528,-0.3531,-0.3482,-0.3505,-0.3507,-0.3522,-0.3499,-0.3495,-0.3517,-0.3514,-0.3482,-0.3478,-0.3475,-0.3504,-0.3451,-0.3451,-0.345,-0.35,-0.3502,-0.3504,0,0,0,0,0,0,-0.3458,-0.3466,-0.3527,-0.3497,-0.3505,-0.3508,-0.3525,-0.3524,-0.3523,-0.3507,-0.35,-0.3517,-0.348,-0.3476,-0.3479,-0.3502,-0.345,-0.345,-0.3498,-0.3501,-0.3503,-0.3566,0,0,0,0,0,0,-0.3455,-0.3465,-0.3472,-0.3498,-0.3507,-0.3558,-0.3527,-0.3526,-0.3533,-0.3528,-0.3505,-0.3498,-0.3479,-0.3481,-0.3479,-0.35,-0.3449,-0.3496,-0.35,-0.3503,-0.3562,-0.3571,-0.3578,0,0,0,0,0,-0.3452,-0.3472,-0.3472,-0.348,-0.3518,-0.356,-0.3564,-0.3557,-0.3535,-0.3546,-0.3529,-0.3498,-0.35,-0.3482,-0.3479,-0.3501,-0.3495,-0.3499,-0.3502,-0.3558,-0.3569,-0.3578,0,0,0,0,0,0,-0.343,-0.3472,-0.3471,-0.3501,-0.353,-0.3554,-0.3562,-0.3561,-0.3559,-0.3546,-0.3519,-0.3513,-0.3526,-0.3511,-0.3491,-0.3528,-0.3493,-0.3497,-0.3537,-0.3546,-0.3554,-0.3551,-0.3449,0,0,0,0,0,-0.3432,-0.3454,-0.3495,-0.3515,-0.3532,-0.3547,-0.3559,-0.3563,-0.3569,-0.3566,-0.3552,-0.3541,-0.3545,-0.3541,-0.3541,-0.356,-0.3524,-0.3574,-0.3582,-0.3589,-0.3586,-0.3562,-0.3567,-0.3517,-0.3517,-0.3517,0,0,-0.3424,-0.3452,-0.3461,-0.3511,-0.3527,-0.3567,-0.3548,-0.3576,-0.3603,-0.3561,-0.3577,-0.3568,-0.3558,-0.358,-0.3584,-0.3565,-0.3585,-0.3594,-0.3599,-0.3593,-0.3566,-0.3571,-0.3575,-0.352,-0.3519,-0.3519,0,0,-0.3432,-0.3451,-0.3476,-0.3513,-0.3554,-0.3575,-0.3585,-0.3617,-0.362,-0.3647,-0.3625,-0.3627,-0.3632,-0.3631,-0.3631,-0.3685,-0.363,-0.3689,-0.3723,-0.37,-0.3703,-0.3705,-0.3662,-0.366,-0.3691,-0.3691,-0.3691,0,-0.342,-0.3461,-0.3489,-0.3534,-0.3561,-0.3581,-0.3619,-0.3644,-0.367,-0.3674,-0.3657,-0.3667,-0.3658,-0.3681,-0.3704,-0.3701,-0.367,-0.3684,-0.3708,-0.371,-0.3711,-0.3666,-0.3663,-0.3695,-0.3694,-0.3694,-0.3694,0,-0.3453,-0.349,-0.3511,-0.3572,-0.3609,-0.3645,-0.3694,-0.3719,-0.3721,-0.3735,-0.3752,-0.3744,-0.3742,-0.3753,-0.3745,-0.3763,-0.3731,-0.372,-0.3678,-0.3719,-0.367,-0.3665,-0.37,-0.3699,-0.3698,-0.3697,0,0,-0.3405,-0.3512,-0.3515,-0.3549,-0.3631,-0.3661,-0.3721,-0.3769,-0.379,-0.3807,-0.3821,-0.3841,-0.3821,-0.382,-0.381,-0.38,-0.3787,-0.3769,-0.3766,-0.3715,-0.3717,-0.3633,-0.3619,-0.3776,-0.3776,-0.3776,-0.3677,0,-0.3413,-0.3494,-0.3549,-0.3615,-0.3658,-0.3712,-0.3765,-0.3813,-0.3836,-0.3858,-0.3855,-0.3864,-0.3853,-0.3846,-0.3839,-0.3805,-0.3779,-0.3813,-0.3694,-0.369,-0.3601,-0.3613,-0.3489,-0.3385,-0.3672,-0.3671,-0.3671,0,-0.3414,-0.3472,-0.3539,-0.3636,-0.3658,-0.3703,-0.377,-0.382,-0.3873,-0.3889,-0.39,-0.3896,-0.3898,-0.3873,-0.382,-0.3841,-0.3783,-0.3747,-0.3742,-0.3636,-0.3597,-0.3392,-0.3366,-0.3344,-0.3663,-0.3664,-0.3664,0,-0.3344,-0.3455,-0.3502,-0.3538,-0.3656,-0.3686,-0.3738,-0.381,-0.3846,-0.3893,-0.3909,-0.3914,-0.3898,-0.3852,-0.379,-0.3801,-0.3711,-0.371,-0.3573,-0.3565,-0.3421,-0.3401,-0.3346,-0.3651,-0.3651,-0.3652,-0.3652,0,-0.3321,-0.3352,-0.347,-0.3495,-0.354,-0.364,-0.3684,-0.3742,-0.3818,-0.3842,-0.3901,-0.3901,-0.3891,-0.3847,-0.3789,-0.366,-0.37,-0.3569,-0.3534,-0.344,-0.3424,-0.3366,-0.3387,-0.3648,-0.3649,-0.365,-0.365,0,-0.3221,-0.3308,-0.3359,-0.3476,-0.3505,-0.3527,-0.3639,-0.3669,-0.3766,-0.3796,-0.3809,-0.3875,-0.3818,-0.3787,-0.3701,-0.3635,-0.3465,-0.3475,-0.3358,-0.3311,-0.3163,-0.3191,-0.3061,-0.2974,-0.3305,-0.3302,-0.33,0,-0.3173,-0.3191,-0.3301,-0.3315,-0.3358,-0.342,-0.3458,-0.36,-0.3639,-0.3757,-0.375,-0.3755,-0.37,-0.357,-0.3476,-0.3343,-0.3332,-0.3153,-0.3154,-0.3128,-0.3135,-0.3146,-0.3084,-0.2985,-0.298,-0.2976,-0.2973,0,-0.3054,-0.3092,-0.3126,-0.3168,-0.3206,-0.3256,-0.3327,-0.336,-0.351,-0.3548,-0.3555,-0.3529,-0.3467,-0.3298,-0.3184,-0.309,-0.3077,-0.3068,-0.307,-0.29,-0.2878,-0.2785,-0.308,-0.2939,-0.2943,-0.2945,-0.2947,-0.2948,-0.2925,-0.2916,-0.2959,-0.2976,-0.3021,-0.3036,-0.3016,-0.3116,-0.3141,-0.3168,-0.3274,-0.3214,-0.3168,-0.299,-0.2902,-0.2747,-0.2809,-0.2668,-0.2707,-0.2724,-0.2631,-0.2845,-0.2656,-0.2658,-0.266,-0.2661,-0.2662,0,-0.2746,-0.2752,-0.2762,-0.2779,-0.2746,-0.2838,-0.2874,-0.2824,-0.278,-0.2886,-0.2867,-0.2856,-0.2703,-0.2683,-0.2552,-0.2432,-0.2375,-0.2379,-0.2382,-0.2336,-0.2532,-0.2511,-0.2247,-0.2247,-0.2247,-0.2247,-0.2247,-0.2247,-0.2649,-0.2585,-0.2596,-0.248,-0.2486,-0.2376,-0.2346,-0.2308,-0.2341,-0.2313,-0.2379,-0.2496,-0.2485,-0.2583,-0.2412,-0.2294,-0.2233,-0.2157,-0.2189,-0.2369,-0.2401,-0.2431,-0.2415,-0.2136,-0.2136,-0.1909,-0.1907,-0.1906]},{"header":{"parameterUnit":"m.s-1","parameterCategory":2,"la1":30.2991,"la2":30.254,"lo1":-89.0895,"lo2":-89.0444,"dy":0.0017,"dx":0.0017,"nx":28,"ny":28,"refTime":"2025-12-03T03:00:00:Z","depth":"0","parameterNumber":3,"parameterNumberName":"V-component_of_CURRENTS"},"data":[0,0,0,0,0,0,0,0,0,0,0,0,0,0,0,0,0,0,0,0,0,0,0,0,0,0,0,0,0,0,0,0,0,0,0,0,0,0,0,0,0,0,0,0,0,0,0,0,0,0,0,0,0,0,0,0,0,0,-0.0519,-0.0518,0,-0.0398,-0.0397,-0.0395,-0.0312,-0.0312,-0.0311,-0.0311,-0.0144,-0.014,-0.0136,0,0,0,0,0,0,0,0,0,0,0,0,0,-0.0604,-0.0604,-0.052,-0.0518,-0.0517,-0.0399,-0.0397,-0.0395,-0.0312,-0.0312,-0.0311,-0.0311,-0.0146,-0.0141,-0.0136,0,0,0,0,0,0,0,0,0,0,0,0,0,-0.0532,-0.0603,-0.052,-0.0463,-0.0457,-0.0399,-0.0397,-0.0394,-0.0312,-0.0312,-0.0311,-0.031,-0.0147,-0.0141,-0.0135,-0.0111,0,0,-0.0117,-0.0114,0,0,0,0,0,0,0,0,-0.0536,-0.0529,-0.0473,-0.0467,-0.046,-0.0371,-0.0366,-0.0298,-0.0312,-0.0365,-0.0311,-0.031,-0.0218,-0.0206,-0.0182,-0.0103,-0.0096,-0.0116,-0.0113,-0.011,-0.0108,0,0,0,0,0,0,0,-0.0542,-0.0533,-0.0469,-0.0471,-0.0464,-0.0418,-0.0407,-0.0352,-0.0294,-0.036,-0.0355,-0.0345,-0.0214,-0.0188,-0.0178,-0.0093,-0.0117,-0.0111,-0.0107,-0.0105,0.0032,0.0032,0,0,0,0,0,0,-0.0565,-0.0538,-0.0473,-0.0466,-0.05,-0.0417,-0.0405,-0.0399,-0.0295,-0.028,-0.0345,-0.0341,-0.0199,-0.0185,-0.0172,-0.0127,-0.011,-0.0104,-0.0101,0.0032,0.0032,0.0032,0,0,0,0,0,0,-0.0568,-0.0561,-0.0478,-0.0501,-0.0487,-0.0417,-0.041,-0.0397,-0.0372,-0.0285,-0.0268,-0.0334,-0.0198,-0.018,-0.0122,-0.012,-0.0102,-0.0096,0.0032,0.0032,0.0032,-0.0044,0,0,0,0,0,0,-0.0571,-0.0563,-0.0568,-0.0503,-0.0487,-0.0454,-0.041,-0.0395,-0.0368,-0.0361,-0.027,-0.0254,-0.0196,-0.0131,-0.0116,-0.0112,-0.0091,0.0032,0.0032,0.0032,-0.0041,-0.0046,-0.0051,0,0,0,0,0,-0.0574,-0.0589,-0.0569,-0.0561,-0.0496,-0.0455,-0.0443,-0.0389,-0.0368,-0.0363,-0.0297,-0.0257,-0.012,-0.0126,-0.0108,-0.0102,0.0032,0.0032,0.0032,-0.0039,-0.0045,-0.005,0,0,0,0,0,0,-0.0628,-0.058,-0.0557,-0.0555,-0.0513,-0.0442,-0.0435,-0.0398,-0.0342,-0.0336,-0.0253,-0.0232,-0.0182,-0.0134,-0.0142,-0.0063,-0.0039,-0.0036,-0.0099,-0.0104,-0.0109,-0.013,-0.0086,0,0,0,0,0,-0.0644,-0.0642,-0.0585,-0.0584,-0.0568,-0.0504,-0.0481,-0.0445,-0.0388,-0.0363,-0.0298,-0.0229,-0.0168,-0.0131,-0.0074,-0.0029,0.0025,-0.0014,-0.0019,-0.0023,-0.0028,0.0058,0.006,0.0032,0.0032,0.0032,0,0,-0.0665,-0.0639,-0.0637,-0.0596,-0.0559,-0.0544,-0.0488,-0.0463,-0.0444,-0.0353,-0.031,-0.0246,-0.0162,-0.011,-0.0084,-0.0068,0.0012,-0.0023,-0.0028,-0.003,0.0058,0.0061,0.0063,0.0032,0.0032,0.0032,0,0,-0.0712,-0.0684,-0.0699,-0.0669,-0.0625,-0.0581,-0.058,-0.0513,-0.0477,-0.0429,-0.0359,-0.0292,-0.0206,-0.0137,-0.0092,-0.0088,-0.0021,-0.0077,-0.0108,-0.0025,-0.0022,-0.0018,0.0045,0.0055,-0.0073,-0.0073,-0.0073,0,-0.0742,-0.0749,-0.0697,-0.0701,-0.0683,-0.0605,-0.0612,-0.0563,-0.0484,-0.045,-0.043,-0.0284,-0.0216,-0.0133,-0.0132,-0.0098,-0.005,-0.0095,-0.0031,-0.0027,-0.0022,0.0043,0.0054,-0.0077,-0.0076,-0.0076,-0.0076,0,-0.0795,-0.0798,-0.0805,-0.0782,-0.0753,-0.0748,-0.0676,-0.0641,-0.0589,-0.0527,-0.0444,-0.0343,-0.0255,-0.0223,-0.0175,-0.0106,-0.0084,-0.0053,-0.002,-0.0024,0.0045,0.0058,-0.0082,-0.0081,-0.008,-0.0079,0,0,-0.0865,-0.085,-0.085,-0.0856,-0.0797,-0.0782,-0.0745,-0.0683,-0.0652,-0.0565,-0.0512,-0.0399,-0.0337,-0.0283,-0.0205,-0.013,-0.0056,-0.0088,-0.0082,-0.0032,0.0114,0.017,0.0191,-0.0015,-0.0013,-0.0011,0.0145,0,-0.0923,-0.0965,-0.0925,-0.0945,-0.0958,-0.0874,-0.0845,-0.0774,-0.0693,-0.062,-0.0496,-0.0421,-0.036,-0.0317,-0.0232,-0.0094,-0.0023,-0.0102,0.0116,0.0122,0.0168,0.0208,0.0255,0.0402,0.0158,0.0161,0.0162,0,-0.0985,-0.1005,-0.105,-0.1033,-0.1028,-0.1019,-0.095,-0.0911,-0.078,-0.0715,-0.0606,-0.0504,-0.0372,-0.033,-0.01,-0.0155,-0.0038,0.0066,0.0075,0.0164,0.0205,0.0369,0.0436,0.0619,0.0184,0.0182,0.0181,0,-0.1072,-0.1086,-0.1129,-0.1124,-0.1091,-0.1085,-0.1054,-0.0945,-0.0906,-0.0771,-0.0719,-0.0548,-0.0451,-0.0284,-0.0064,-0.0084,0.0189,0.0196,0.0356,0.0361,0.0463,0.0474,0.073,0.0345,0.0344,0.0344,0.0343,0,-0.1152,-0.1181,-0.1179,-0.1204,-0.1239,-0.1175,-0.1169,-0.1105,-0.1002,-0.0944,-0.0781,-0.0688,-0.0435,-0.0244,-0.007,0.02,0.0193,0.0363,0.0416,0.0437,0.0443,0.0656,0.0708,0.035,0.0348,0.0347,0.0346,0,-0.1239,-0.1238,-0.129,-0.1287,-0.1288,-0.1312,-0.127,-0.1252,-0.114,-0.1058,-0.102,-0.0778,-0.0513,-0.0253,0.0052,0.0205,0.0565,0.0533,0.0533,0.0583,0.0879,0.0922,0.1211,0.1312,0.0727,0.073,0.0732,0,-0.1289,-0.133,-0.1371,-0.1408,-0.1413,-0.143,-0.1434,-0.1342,-0.1307,-0.1102,-0.1067,-0.0791,-0.0565,-0.0089,0.0235,0.0573,0.0698,0.0791,0.0767,0.0922,0.101,0.1037,0.1102,0.0871,0.0874,0.0876,0.0878,0,-0.1378,-0.1393,-0.1436,-0.1524,-0.1556,-0.1579,-0.157,-0.1565,-0.1426,-0.1309,-0.1098,-0.0896,-0.041,0.0027,0.0468,0.0665,0.0926,0.0851,0.1036,0.1167,0.1194,0.1306,0.0721,0.0901,0.0898,0.0897,0.0896,0.0895,-0.1431,-0.1491,-0.1552,-0.1625,-0.167,-0.1702,-0.1706,-0.1653,-0.1568,-0.135,-0.1144,-0.0781,-0.0159,0.049,0.0715,0.1197,0.113,0.1331,0.1376,0.1394,0.1485,0.0934,0.1157,0.1156,0.1155,0.1155,0.1154,0,-0.1491,-0.1554,-0.1643,-0.1723,-0.1784,-0.1775,-0.1767,-0.1717,-0.16,-0.1341,-0.1078,-0.0358,0.024,0.0785,0.1465,0.1713,0.1752,0.1833,0.1894,0.1938,0.1493,0.1493,0.1771,0.1771,0.1771,0.1771,0.1771,0.177,-0.1522,-0.1622,-0.1671,-0.1788,-0.184,-0.1865,-0.1849,-0.1734,-0.1541,-0.1097,-0.0666,-0.0306,0.0482,0.1555,0.2163,0.2213,0.2396,0.2379,0.2475,0.2172,0.2129,0.2087,0.2105,0.2507,0.2508,0.2916,0.292,0.2923]}],[{"header":{"parameterUnit":"m.s-1","parameterCategory":2,"la1":30.2991,"la2":30.254,"lo1":-89.0895,"lo2":-89.0444,"dy":0.0017,"dx":0.0017,"nx":28,"ny":28,"refTime":"2025-12-03T03:00:00:Z","depth":"2","parameterNumber":2,"parameterNumberName":"U-component_of_CURRENTS"},"data":[0,0,0,0,0,0,0,0,0,0,0,0,0,0,0,0,0,0,0,0,0,0,0,0,0,0,0,0,0,0,0,0,0,0,0,0,0,0,0,0,0,0,0,0,0,0,0,0,0,0,0,0,0,0,0,0,0,0,-0.3217,-0.3218,0,-0.325,-0.325,-0.325,-0.3223,-0.3223,-0.3222,-0.3221,-0.318,-0.318,-0.3179,0,0,0,0,0,0,0,0,0,0,0,0,0,-0.3127,-0.3129,-0.3217,-0.3218,-0.3219,-0.325,-0.325,-0.325,-0.3224,-0.3223,-0.3221,-0.3221,-0.318,-0.318,-0.3179,0,0,0,0,0,0,0,0,0,0,0,0,0,-0.3161,-0.3129,-0.3217,-0.3211,-0.3211,-0.325,-0.325,-0.325,-0.3224,-0.3222,-0.3221,-0.322,-0.318,-0.318,-0.3179,-0.3202,0,0,-0.3178,-0.3178,0,0,0,0,0,0,0,0,-0.3159,-0.3164,-0.3211,-0.3212,-0.3212,-0.3234,-0.3204,-0.3232,-0.3224,-0.3216,-0.3221,-0.3219,-0.3194,-0.3193,-0.3198,-0.32,-0.3199,-0.3178,-0.3178,-0.3178,-0.3177,0,0,0,0,0,0,0,-0.3157,-0.3162,-0.3227,-0.3212,-0.3213,-0.3206,-0.3209,-0.3209,-0.3208,-0.3216,-0.3215,-0.3224,-0.3193,-0.3199,-0.3197,-0.3198,-0.3178,-0.3178,-0.3177,-0.3177,-0.3232,-0.3234,0,0,0,0,0,0,-0.3161,-0.316,-0.3226,-0.3228,-0.3185,-0.3209,-0.3212,-0.3226,-0.3209,-0.3207,-0.3225,-0.3223,-0.32,-0.3197,-0.3195,-0.3232,-0.3178,-0.3177,-0.3177,-0.323,-0.3232,-0.3234,0,0,0,0,0,0,-0.3159,-0.3167,-0.3225,-0.3197,-0.3204,-0.3212,-0.3227,-0.3227,-0.3232,-0.3218,-0.3213,-0.3231,-0.3199,-0.3196,-0.3205,-0.323,-0.3177,-0.3177,-0.3228,-0.3231,-0.3233,-0.3299,0,0,0,0,0,0,-0.3156,-0.3166,-0.3174,-0.3198,-0.3206,-0.3256,-0.3229,-0.3229,-0.3241,-0.3238,-0.3221,-0.3216,-0.3198,-0.3206,-0.3204,-0.3228,-0.3176,-0.3226,-0.323,-0.3233,-0.3295,-0.3303,-0.3311,0,0,0,0,0,-0.3153,-0.3173,-0.3174,-0.3182,-0.3218,-0.3257,-0.3261,-0.3259,-0.3243,-0.3256,-0.3245,-0.3217,-0.3225,-0.3207,-0.3205,-0.3229,-0.3225,-0.3229,-0.3232,-0.3291,-0.3302,-0.3311,0,0,0,0,0,0,-0.3135,-0.3173,-0.3175,-0.3204,-0.3232,-0.3254,-0.3264,-0.3266,-0.3269,-0.3261,-0.3237,-0.3233,-0.3251,-0.3236,-0.3216,-0.3257,-0.3221,-0.3225,-0.3267,-0.3277,-0.3285,-0.3282,-0.3176,0,0,0,0,0,-0.3138,-0.3159,-0.3197,-0.3217,-0.3234,-0.325,-0.3263,-0.327,-0.3279,-0.3278,-0.3269,-0.3263,-0.3268,-0.3267,-0.3268,-0.3289,-0.3256,-0.3306,-0.3314,-0.3321,-0.3319,-0.3298,-0.3303,-0.3247,-0.3247,-0.3247,0,0,-0.3133,-0.3159,-0.3168,-0.3215,-0.3231,-0.3269,-0.3254,-0.3284,-0.3311,-0.3274,-0.3297,-0.329,-0.3281,-0.3306,-0.3313,-0.3293,-0.332,-0.3326,-0.3332,-0.3326,-0.3303,-0.3308,-0.3312,-0.325,-0.3249,-0.3249,0,0,-0.3142,-0.3162,-0.3186,-0.322,-0.3262,-0.3281,-0.3293,-0.3326,-0.3333,-0.3363,-0.3345,-0.3352,-0.3361,-0.3361,-0.3361,-0.3416,-0.3365,-0.3423,-0.3458,-0.3439,-0.3443,-0.3446,-0.3407,-0.3406,-0.3425,-0.3425,-0.3425,0,-0.3134,-0.3171,-0.3199,-0.3241,-0.3267,-0.329,-0.3327,-0.3352,-0.3381,-0.3389,-0.3377,-0.3393,-0.3387,-0.3411,-0.3436,-0.3433,-0.3406,-0.3419,-0.3447,-0.345,-0.3451,-0.3411,-0.3409,-0.3429,-0.3429,-0.3428,-0.3428,0,-0.3165,-0.3201,-0.3221,-0.3279,-0.3315,-0.335,-0.3398,-0.3426,-0.3435,-0.3451,-0.3475,-0.347,-0.3473,-0.3485,-0.3478,-0.35,-0.3472,-0.3459,-0.3417,-0.3461,-0.3416,-0.3412,-0.3434,-0.3433,-0.3432,-0.3431,0,0,-0.3124,-0.3222,-0.3227,-0.3259,-0.3337,-0.3367,-0.3426,-0.3474,-0.3498,-0.3522,-0.354,-0.3565,-0.3552,-0.3552,-0.3545,-0.3538,-0.3534,-0.3512,-0.3509,-0.3464,-0.3476,-0.3389,-0.3376,-0.3525,-0.3525,-0.3525,-0.3438,0,-0.3132,-0.3207,-0.3259,-0.3322,-0.3362,-0.3416,-0.3468,-0.3517,-0.3544,-0.3572,-0.3574,-0.3589,-0.3582,-0.3582,-0.3579,-0.3549,-0.3529,-0.3558,-0.3449,-0.3445,-0.3354,-0.3371,-0.313,-0.3026,-0.3434,-0.3433,-0.3433,0,-0.3135,-0.3187,-0.3252,-0.3342,-0.3363,-0.3408,-0.3477,-0.3527,-0.3584,-0.3604,-0.3622,-0.3623,-0.3633,-0.3612,-0.357,-0.3588,-0.3538,-0.3506,-0.3501,-0.3392,-0.3351,-0.305,-0.3004,-0.3426,-0.3427,-0.3427,-0.3428,0,-0.3071,-0.3174,-0.3219,-0.3253,-0.3364,-0.3396,-0.3448,-0.3523,-0.3559,-0.3613,-0.3633,-0.3645,-0.3638,-0.3599,-0.3548,-0.3557,-0.3479,-0.3476,-0.3343,-0.3336,-0.3093,-0.3064,-0.3427,-0.3427,-0.3427,-0.3427,-0.3427,0,-0.3049,-0.308,-0.3192,-0.3216,-0.3262,-0.3358,-0.3405,-0.3463,-0.3541,-0.3566,-0.3631,-0.3633,-0.3635,-0.3598,-0.3547,-0.3428,-0.347,-0.3341,-0.3308,-0.311,-0.3086,-0.3407,-0.3405,-0.3424,-0.3425,-0.3425,-0.3426,0,-0.2959,-0.304,-0.3089,-0.3201,-0.323,-0.3256,-0.3366,-0.3396,-0.3495,-0.3527,-0.3544,-0.3612,-0.3565,-0.3542,-0.3468,-0.3405,-0.3316,-0.3257,-0.3021,-0.2962,-0.3184,-0.3188,-0.3099,-0.3096,-0.3092,-0.309,-0.3087,0,-0.2915,-0.2933,-0.3039,-0.3053,-0.3097,-0.3161,-0.3197,-0.3335,-0.3371,-0.3489,-0.3482,-0.3496,-0.3443,-0.3327,-0.3228,-0.3105,-0.3202,-0.2818,-0.2799,-0.3174,-0.3151,-0.316,-0.3167,-0.2497,-0.249,-0.2485,-0.248,0,-0.2805,-0.2844,-0.2876,-0.2918,-0.2956,-0.3002,-0.3072,-0.31,-0.3245,-0.3281,-0.3287,-0.3262,-0.3199,-0.2972,-0.2864,-0.2764,-0.2829,-0.27,-0.3125,-0.2637,-0.2604,-0.2583,-0.261,-0.243,-0.2435,-0.2438,-0.2441,-0.2443,-0.2689,-0.268,-0.2722,-0.274,-0.2783,-0.2792,-0.2771,-0.2859,-0.2878,-0.2886,-0.2993,-0.288,-0.2858,-0.2563,-0.2421,-0.2322,-0.2517,-0.2391,-0.2409,-0.2433,-0.2398,-0.2364,-0.2136,-0.2139,-0.2142,-0.2144,-0.2146,0,-0.2521,-0.2527,-0.2537,-0.2551,-0.2517,-0.2609,-0.2635,-0.2571,-0.2517,-0.2573,-0.2541,-0.2257,-0.2124,-0.2114,-0.189,-0.1847,-0.1829,-0.1758,-0.1735,-0.1786,-0.1831,-0.1767,-0.1336,-0.1334,-0.1332,-0.1329,0,0,-0.2431,-0.2369,-0.2376,-0.2262,-0.227,-0.2161,-0.2127,-0.2063,-0.2051,-0.1924,-0.1875,-0.2028,-0.2062,-0.1709,-0.162,-0.1446,-0.16,-0.1368,-0.2017,-0.2041,-0.2083,-0.2193,-0.215,0,0,0,0,0]},{"header":{"parameterUnit":"m.s-1","parameterCategory":2,"la1":30.2991,"la2":30.254,"lo1":-89.0895,"lo2":-89.0444,"dy":0.0017,"dx":0.0017,"nx":28,"ny":28,"refTime":"2025-12-03T03:00:00:Z","depth":"2","parameterNumber":3,"parameterNumberName":"V-component_of_CURRENTS"},"data":[0,0,0,0,0,0,0,0,0,0,0,0,0,0,0,0,0,0,0,0,0,0,0,0,0,0,0,0,0,0,0,0,0,0,0,0,0,0,0,0,0,0,0,0,0,0,0,0,0,0,0,0,0,0,0,0,0,0,-0.0427,-0.0426,0,-0.0314,-0.0312,-0.0311,-0.0234,-0.0234,-0.0233,-0.0233,-0.0075,-0.0072,-0.0068,0,0,0,0,0,0,0,0,0,0,0,0,0,-0.0504,-0.0503,-0.0427,-0.0426,-0.0425,-0.0314,-0.0312,-0.0311,-0.0234,-0.0234,-0.0233,-0.0233,-0.0077,-0.0072,-0.0068,0,0,0,0,0,0,0,0,0,0,0,0,0,-0.0437,-0.0503,-0.0427,-0.0375,-0.0369,-0.0315,-0.0312,-0.031,-0.0234,-0.0234,-0.0233,-0.0232,-0.0078,-0.0073,-0.0067,-0.0042,0,0,-0.0049,-0.0047,0,0,0,0,0,0,0,0,-0.0441,-0.0434,-0.0384,-0.0378,-0.0372,-0.0289,-0.0282,-0.0219,-0.0234,-0.0283,-0.0233,-0.0232,-0.0145,-0.0133,-0.0111,-0.0035,-0.0028,-0.0049,-0.0045,-0.0043,-0.0041,0,0,0,0,0,0,0,-0.0446,-0.0438,-0.038,-0.0382,-0.0375,-0.0332,-0.0322,-0.0269,-0.0216,-0.0279,-0.0273,-0.0264,-0.0141,-0.0117,-0.0107,-0.0026,-0.0049,-0.0044,-0.004,-0.0038,0.0091,0.0091,0,0,0,0,0,0,-0.0468,-0.0443,-0.0384,-0.0377,-0.0408,-0.0331,-0.032,-0.0315,-0.0217,-0.0203,-0.0265,-0.0261,-0.0127,-0.0113,-0.0101,-0.006,-0.0043,-0.0037,-0.0034,0.0091,0.0091,0.0091,0,0,0,0,0,0,-0.0471,-0.0464,-0.0388,-0.0409,-0.0396,-0.0331,-0.0325,-0.0313,-0.029,-0.0208,-0.0192,-0.0256,-0.0126,-0.0109,-0.0054,-0.0053,-0.0035,-0.003,0.0091,0.0091,0.0091,0.0019,0,0,0,0,0,0,-0.0473,-0.0466,-0.0472,-0.0411,-0.0396,-0.0366,-0.0325,-0.0311,-0.0286,-0.028,-0.0194,-0.0179,-0.0124,-0.0063,-0.0048,-0.0045,-0.0025,0.0091,0.0091,0.0091,0.0021,0.0016,0.0012,0,0,0,0,0,-0.0477,-0.0491,-0.0473,-0.0465,-0.0406,-0.0367,-0.0356,-0.0306,-0.0287,-0.0282,-0.022,-0.0182,-0.0053,-0.0058,-0.0041,-0.0036,0.0091,0.0091,0.0091,0.0023,0.0017,0.0012,0,0,0,0,0,0,-0.0527,-0.0482,-0.0462,-0.0461,-0.0422,-0.0355,-0.0349,-0.0315,-0.0262,-0.0257,-0.0178,-0.0158,-0.0112,-0.0066,-0.0074,0.0,0.0024,0.0027,-0.0034,-0.0039,-0.0043,-0.0062,-0.002,0,0,0,0,0,-0.0542,-0.0541,-0.0488,-0.0488,-0.0474,-0.0413,-0.0393,-0.036,-0.0305,-0.0282,-0.0221,-0.0156,-0.0099,-0.0064,-0.001,0.0033,0.0085,0.0046,0.0042,0.0037,0.0034,0.0115,0.0117,0.0091,0.0091,0.0091,0,0,-0.0562,-0.0538,-0.0537,-0.0499,-0.0465,-0.0451,-0.0399,-0.0377,-0.0359,-0.0273,-0.0234,-0.0173,-0.0093,-0.0045,-0.002,-0.0004,0.007,0.0037,0.0033,0.0032,0.0115,0.0117,0.012,0.0091,0.0091,0.0091,0,0,-0.0607,-0.0581,-0.0596,-0.0568,-0.0528,-0.0487,-0.0486,-0.0424,-0.0391,-0.0347,-0.028,-0.0218,-0.0137,-0.0071,-0.0029,-0.0026,0.0038,-0.0015,-0.0044,0.0034,0.0037,0.004,0.01,0.011,-0.0012,-0.0012,-0.0012,0,-0.0635,-0.0643,-0.0594,-0.0598,-0.0582,-0.051,-0.0517,-0.0471,-0.0398,-0.0367,-0.0348,-0.0211,-0.0146,-0.0068,-0.0068,-0.0035,0.0011,-0.0031,0.0028,0.0032,0.0037,0.0098,0.0109,-0.0015,-0.0015,-0.0014,-0.0014,0,-0.0685,-0.0689,-0.0696,-0.0675,-0.0649,-0.0645,-0.0578,-0.0546,-0.0498,-0.0441,-0.0364,-0.0268,-0.0185,-0.0154,-0.0108,-0.0044,-0.0022,0.0007,0.0038,0.0035,0.01,0.0113,-0.002,-0.0019,-0.0018,-0.0017,0,0,-0.0751,-0.0738,-0.0739,-0.0746,-0.0691,-0.0677,-0.0644,-0.0587,-0.0559,-0.0477,-0.0429,-0.0321,-0.0263,-0.0212,-0.0138,-0.0066,0.0004,-0.0026,-0.002,0.0028,0.0164,0.0212,0.0231,0.0042,0.0044,0.0045,0.0194,0,-0.0806,-0.0846,-0.0809,-0.083,-0.0843,-0.0765,-0.074,-0.0674,-0.0599,-0.0532,-0.0415,-0.0344,-0.0285,-0.0245,-0.0164,-0.0033,0.0036,-0.0039,0.0167,0.0173,0.0211,0.0247,0.0201,0.0333,0.0207,0.0209,0.0211,0,-0.0865,-0.0884,-0.0928,-0.0914,-0.091,-0.0903,-0.0842,-0.0807,-0.0685,-0.0625,-0.0522,-0.0426,-0.03,-0.0258,-0.004,-0.0092,0.002,0.012,0.0129,0.0208,0.0245,0.032,0.0362,0.0233,0.0231,0.0229,0.0228,0,-0.0947,-0.0961,-0.1004,-0.1,-0.0971,-0.0967,-0.094,-0.0841,-0.0806,-0.068,-0.0632,-0.0469,-0.0379,-0.0218,-0.0008,-0.0025,0.0233,0.024,0.0389,0.0393,0.0414,0.0417,0.0384,0.0384,0.0383,0.0383,0.0382,0,-0.1022,-0.1051,-0.1051,-0.1076,-0.1113,-0.1054,-0.1053,-0.0995,-0.09,-0.0848,-0.0693,-0.0606,-0.0364,-0.0182,-0.0015,0.0239,0.0234,0.0395,0.0445,0.0387,0.0386,0.0344,0.0338,0.0388,0.0387,0.0386,0.0385,0,-0.1105,-0.1105,-0.1156,-0.1157,-0.116,-0.1185,-0.115,-0.1136,-0.1034,-0.0959,-0.0923,-0.0695,-0.0445,-0.0196,0.0095,0.0241,0.0467,0.0551,0.0462,0.0499,0.057,0.0558,0.0727,0.073,0.0732,0.0735,0.0736,0,-0.1152,-0.1192,-0.1235,-0.1272,-0.1279,-0.13,-0.1307,-0.1222,-0.1192,-0.1004,-0.0971,-0.0712,-0.05,-0.0051,0.0248,0.0567,0.0558,0.0695,0.0662,0.0579,0.061,0.0593,0.0578,0.0656,0.0657,0.0658,0.0659,0,-0.1237,-0.1253,-0.1296,-0.1384,-0.1418,-0.1442,-0.1438,-0.1435,-0.1307,-0.12,-0.1005,-0.0817,-0.037,-0.0003,0.041,0.0583,0.0641,0.0723,0.0691,0.0572,0.0524,0.055,0.0535,0.0666,0.0666,0.0665,0.0665,0.0664,-0.1289,-0.1346,-0.1407,-0.1481,-0.1527,-0.156,-0.1566,-0.1517,-0.144,-0.1237,-0.1052,-0.0721,-0.0369,0.0234,0.0508,0.0757,0.0757,0.0809,0.0801,0.0794,0.0755,0.0715,0.0884,0.0885,0.0885,0.0885,0.0886,0,-0.1346,-0.1407,-0.1495,-0.1574,-0.1634,-0.1631,-0.1626,-0.1574,-0.1465,-0.1232,-0.0991,-0.0568,-0.015,0.0205,0.0609,0.085,0.0811,0.0875,0.0771,0.0764,0.0757,0.0711,0.0832,0.0832,0.0832,0.0833,0,0,-0.1375,-0.1471,-0.1518,-0.1633,-0.1688,-0.1715,-0.1702,-0.1581,-0.1404,-0.114,-0.0882,-0.0547,-0.0115,0.0153,0.0453,0.0654,0.0641,0.0667,0.0689,0.0524,0.0514,0.0702,0.0623,0,0,0,0,0]}],[{"header":{"parameterUnit":"m.s-1","parameterCategory":2,"la1":30.2991,"la2":30.254,"lo1":-89.0895,"lo2":-89.0444,"dy":0.0017,"dx":0.0017,"nx":28,"ny":28,"refTime":"2025-12-03T03:00:00:Z","depth":"4","parameterNumber":2,"parameterNumberName":"U-component_of_CURRENTS"},"data":[0,0,0,0,0,0,0,0,0,0,0,0,0,0,0,0,0,0,0,0,0,0,0,0,0,0,0,0,0,0,0,0,0,0,0,0,0,0,0,0,0,0,0,0,0,0,0,0,0,0,0,0,0,0,0,0,0,0,-0.2191,-0.2192,0,-0.2271,-0.2272,-0.2273,-0.2323,-0.2323,-0.2324,-0.2324,-0.2384,-0.2385,-0.2386,0,0,0,0,0,0,0,0,0,0,0,0,0,-0.2071,-0.2073,-0.2191,-0.2192,-0.2193,-0.2271,-0.2272,-0.2273,-0.2322,-0.2323,-0.2324,-0.2324,-0.2384,-0.2385,-0.2387,0,0,0,0,0,0,0,0,0,0,0,0,0,-0.2132,-0.2073,-0.219,-0.2229,-0.2234,-0.2271,-0.2272,-0.2273,-0.2322,-0.2323,-0.2324,-0.2325,-0.2383,-0.2385,-0.2387,-0.2382,0,0,-0.2392,-0.2393,0,0,0,0,0,0,0,0,-0.2128,-0.2136,-0.2222,-0.2227,-0.2232,-0.229,-0.2252,-0.2309,-0.2322,-0.2286,-0.2324,-0.2325,-0.2352,-0.2356,-0.2366,-0.2385,-0.2387,-0.2392,-0.2393,-0.2394,-0.2394,0,0,0,0,0,0,0,-0.2124,-0.2133,-0.222,-0.2224,-0.2229,-0.224,-0.2249,-0.2263,-0.2311,-0.2289,-0.2294,-0.2306,-0.2354,-0.2365,-0.2368,-0.2388,-0.2392,-0.2393,-0.2395,-0.2395,-0.2512,-0.2514,0,0,0,0,0,0,-0.2119,-0.2129,-0.2217,-0.2223,-0.2184,-0.2242,-0.2252,-0.2268,-0.2312,-0.232,-0.2306,-0.2309,-0.2361,-0.2366,-0.237,-0.2465,-0.2394,-0.2395,-0.2396,-0.251,-0.2513,-0.2515,0,0,0,0,0,0,-0.2116,-0.2127,-0.2214,-0.2179,-0.2192,-0.2243,-0.2261,-0.227,-0.2319,-0.2325,-0.2333,-0.2351,-0.2362,-0.2368,-0.2422,-0.2464,-0.2396,-0.2398,-0.2508,-0.2511,-0.2514,-0.2591,0,0,0,0,0,0,-0.2113,-0.2125,-0.2152,-0.2179,-0.2193,-0.2263,-0.2261,-0.2271,-0.2324,-0.233,-0.2365,-0.2369,-0.2363,-0.2419,-0.2423,-0.2465,-0.2399,-0.2505,-0.2509,-0.2513,-0.2586,-0.2596,-0.2605,0,0,0,0,0,-0.2108,-0.2137,-0.2153,-0.2165,-0.2224,-0.2265,-0.2274,-0.231,-0.2326,-0.2356,-0.2384,-0.237,-0.2447,-0.2422,-0.2427,-0.247,-0.2503,-0.2508,-0.2513,-0.2581,-0.2594,-0.2605,0,0,0,0,0,0,-0.2101,-0.2146,-0.2164,-0.2207,-0.2247,-0.2275,-0.2311,-0.2333,-0.2379,-0.2395,-0.2396,-0.2403,-0.2464,-0.2459,-0.2432,-0.2516,-0.2473,-0.2479,-0.2524,-0.2536,-0.2546,-0.2538,-0.24,0,0,0,0,0,-0.2111,-0.2147,-0.2187,-0.2226,-0.2249,-0.2287,-0.2316,-0.2343,-0.2379,-0.2402,-0.2428,-0.2456,-0.248,-0.2503,-0.2522,-0.2569,-0.2536,-0.26,-0.261,-0.2618,-0.2616,-0.2603,-0.2611,-0.253,-0.253,-0.253,0,0,-0.2119,-0.2149,-0.2171,-0.2228,-0.2261,-0.2305,-0.2308,-0.2365,-0.2409,-0.2399,-0.2477,-0.2493,-0.2501,-0.2555,-0.2582,-0.256,-0.2627,-0.2624,-0.2631,-0.2624,-0.2609,-0.2616,-0.2623,-0.2534,-0.2533,-0.2533,0,0,-0.2139,-0.2182,-0.2217,-0.2257,-0.232,-0.2344,-0.237,-0.2425,-0.2463,-0.2529,-0.2534,-0.2576,-0.2624,-0.2634,-0.2643,-0.2718,-0.2678,-0.2737,-0.2783,-0.2771,-0.2777,-0.2782,-0.2753,-0.2754,-0.2743,-0.2743,-0.2743,0,-0.2151,-0.2196,-0.2234,-0.228,-0.2319,-0.2366,-0.2413,-0.2457,-0.2527,-0.2555,-0.2568,-0.2641,-0.2656,-0.2699,-0.2735,-0.2739,-0.272,-0.2736,-0.2782,-0.2786,-0.2789,-0.2758,-0.2758,-0.2747,-0.2747,-0.2747,-0.2746,0,-0.2184,-0.2239,-0.2267,-0.2337,-0.2385,-0.2436,-0.2497,-0.2556,-0.2606,-0.2639,-0.2711,-0.2732,-0.2768,-0.279,-0.2791,-0.2834,-0.2809,-0.2792,-0.2745,-0.2801,-0.2765,-0.2765,-0.2754,-0.2752,-0.2751,-0.275,0,0,-0.2152,-0.2267,-0.2281,-0.2325,-0.2422,-0.2458,-0.2544,-0.2614,-0.2664,-0.2734,-0.2784,-0.2844,-0.2856,-0.2866,-0.2875,-0.2878,-0.2897,-0.286,-0.2857,-0.282,-0.2864,-0.2683,-0.2663,-0.2892,-0.2892,-0.2892,-0.2829,0,-0.2167,-0.2253,-0.2312,-0.2401,-0.2446,-0.2524,-0.2594,-0.2669,-0.273,-0.2793,-0.2825,-0.2877,-0.2885,-0.2911,-0.292,-0.2905,-0.2899,-0.2915,-0.2825,-0.2822,-0.2644,-0.2657,-0.2894,-0.2828,-0.2827,-0.2827,-0.2827,0,-0.2167,-0.2229,-0.2317,-0.2429,-0.2458,-0.2526,-0.2633,-0.27,-0.2792,-0.284,-0.2894,-0.2919,-0.2959,-0.2948,-0.2938,-0.2952,-0.2919,-0.2895,-0.2891,-0.269,-0.2637,-0.2761,-0.2824,-0.2825,-0.2825,-0.2825,-0.2825,0,-0.2098,-0.2225,-0.2296,-0.2338,-0.2474,-0.2536,-0.261,-0.2716,-0.2768,-0.2868,-0.2904,-0.2952,-0.2974,-0.2956,-0.2928,-0.294,-0.2886,-0.2884,-0.2682,-0.2669,-0.2818,-0.2813,-0.2856,-0.2856,-0.2856,-0.2856,-0.2856,0,-0.2062,-0.2123,-0.2279,-0.2316,-0.2399,-0.2512,-0.26,-0.2679,-0.2784,-0.282,-0.292,-0.2927,-0.2979,-0.2959,-0.2928,-0.2787,-0.2879,-0.2675,-0.2635,-0.2853,-0.2854,-0.2816,-0.2813,-0.2854,-0.2854,-0.2855,-0.2855,0,-0.1963,-0.2072,-0.2157,-0.2317,-0.2368,-0.2427,-0.258,-0.2625,-0.2751,-0.2798,-0.2829,-0.2912,-0.2876,-0.2888,-0.2844,-0.2752,-0.2659,-0.2586,-0.281,-0.2785,-0.2452,-0.2454,-0.2345,-0.2338,-0.2332,-0.2327,-0.2323,0,-0.1913,-0.1951,-0.2127,-0.2171,-0.2249,-0.236,-0.2419,-0.258,-0.2615,-0.2746,-0.2731,-0.2768,-0.2792,-0.2567,-0.2619,-0.252,-0.2493,-0.2434,-0.2452,-0.2426,-0.2398,-0.2409,-0.2419,-0.2313,-0.2311,-0.231,-0.2308,0,-0.1801,-0.1886,-0.1951,-0.2046,-0.2129,-0.22,-0.2298,-0.2307,-0.2461,-0.261,-0.2543,-0.2511,-0.2462,-0.2416,-0.2357,-0.2295,-0.2469,-0.2371,-0.2383,-0.24,-0.2386,-0.2367,-0.2383,-0.2288,-0.2291,-0.2292,-0.2294,0,-0.1706,-0.1723,-0.182,-0.1878,-0.1974,-0.1986,-0.2074,-0.21,-0.2158,-0.2315,-0.228,-0.2325,-0.2417,-0.2296,-0.2241,-0.2166,-0.2136,-0.2066,-0.2094,-0.2117,-0.2074,-0.2025,-0.1762,0,0,0,0,0,-0.1596,-0.1589,-0.1635,-0.1691,-0.1779,-0.1827,-0.1955,-0.2047,-0.2207,-0.2089,-0.2179,-0.2122,-0.2046,-0.2074,-0.1944,-0.2144,-0.215,-0.1986,-0.2087,-0.2172,-0.2196,-0.2168,0,0,0,0,0,0,-0.152,-0.1555,-0.1569,-0.1512,-0.151,-0.1581,-0.1649,-0.1767,-0.1715,-0.1884,-0.1841,-0.1979,-0.1927,-0.2067,-0.1891,-0.1901,-0.1917,-0.2037,-0.2031,-0.2159,-0.2181,-0.22,-0.2179,0,0,0,0,0]},{"header":{"parameterUnit":"m.s-1","parameterCategory":2,"la1":30.2991,"la2":30.254,"lo1":-89.0895,"lo2":-89.0444,"dy":0.0017,"dx":0.0017,"nx":28,"ny":28,"refTime":"2025-12-03T03:00:00:Z","depth":"4","parameterNumber":3,"parameterNumberName":"V-component_of_CURRENTS"},"data":[0,0,0,0,0,0,0,0,0,0,0,0,0,0,0,0,0,0,0,0,0,0,0,0,0,0,0,0,0,0,0,0,0,0,0,0,0,0,0,0,0,0,0,0,0,0,0,0,0,0,0,0,0,0,0,0,0,0,-0.0283,-0.0282,0,-0.0211,-0.021,-0.0209,-0.0158,-0.0158,-0.0158,-0.0157,-0.0039,-0.0036,-0.0033,0,0,0,0,0,0,0,0,0,0,0,0,0,-0.032,-0.032,-0.0283,-0.0282,-0.0281,-0.0211,-0.021,-0.0209,-0.0158,-0.0158,-0.0158,-0.0157,-0.004,-0.0037,-0.0033,0,0,0,0,0,0,0,0,0,0,0,0,0,-0.028,-0.032,-0.0283,-0.0249,-0.0245,-0.0211,-0.021,-0.0209,-0.0158,-0.0158,-0.0157,-0.0157,-0.0041,-0.0037,-0.0033,-0.0013,0,0,-0.0019,-0.0017,0,0,0,0,0,0,0,0,-0.0283,-0.0279,-0.0255,-0.0251,-0.0247,-0.0195,-0.018,-0.0141,-0.0158,-0.0189,-0.0157,-0.0157,-0.0088,-0.008,-0.0065,-0.0007,-0.0002,-0.0019,-0.0016,-0.0014,-0.0013,0,0,0,0,0,0,0,-0.0286,-0.0281,-0.0252,-0.0254,-0.025,-0.0218,-0.0213,-0.0172,-0.0139,-0.0187,-0.0183,-0.0178,-0.0086,-0.007,-0.0062,-0.0,-0.0019,-0.0015,-0.0012,-0.0011,0.0086,0.0086,0,0,0,0,0,0,-0.0302,-0.0284,-0.0255,-0.0251,-0.0267,-0.0219,-0.0212,-0.021,-0.0141,-0.0131,-0.0179,-0.0176,-0.0077,-0.0067,-0.0058,-0.003,-0.0014,-0.001,-0.0008,0.0086,0.0086,0.0086,0,0,0,0,0,0,-0.0303,-0.03,-0.0258,-0.0267,-0.026,-0.0219,-0.0217,-0.0209,-0.0197,-0.0136,-0.0124,-0.0175,-0.0077,-0.0064,-0.0024,-0.0025,-0.0008,-0.0004,0.0086,0.0086,0.0086,0.0027,0,0,0,0,0,0,-0.0304,-0.0301,-0.0309,-0.0268,-0.026,-0.0247,-0.0217,-0.0208,-0.0195,-0.0191,-0.0129,-0.0117,-0.0075,-0.0031,-0.002,-0.0018,-0.0001,0.0086,0.0086,0.0086,0.0029,0.0025,0.0021,0,0,0,0,0,-0.0306,-0.0319,-0.031,-0.0306,-0.0271,-0.0247,-0.024,-0.0208,-0.0196,-0.0195,-0.0149,-0.0119,-0.0024,-0.0027,-0.0014,-0.0012,0.0086,0.0086,0.0086,0.0031,0.0025,0.0021,0,0,0,0,0,0,-0.0339,-0.0314,-0.0303,-0.0308,-0.0284,-0.024,-0.0239,-0.0216,-0.018,-0.0177,-0.0117,-0.0103,-0.007,-0.0033,-0.0039,0.0016,0.0035,0.0038,-0.0011,-0.0016,-0.0019,-0.0032,0.0003,0,0,0,0,0,-0.0352,-0.0357,-0.0323,-0.0329,-0.0321,-0.0282,-0.027,-0.0249,-0.0211,-0.0195,-0.0151,-0.0103,-0.006,-0.0033,0.0006,0.0039,0.0081,0.0049,0.0045,0.0041,0.0039,0.0103,0.0105,0.0085,0.0085,0.0085,0,0,-0.0367,-0.0354,-0.0357,-0.0337,-0.0316,-0.0311,-0.0274,-0.0263,-0.0253,-0.0188,-0.0164,-0.0118,-0.0056,-0.0021,-0.0003,0.0011,0.0068,0.0041,0.0037,0.0038,0.0104,0.0106,0.0107,0.0085,0.0085,0.0085,0,0,-0.0401,-0.0389,-0.0405,-0.0389,-0.0367,-0.034,-0.0341,-0.0301,-0.028,-0.0251,-0.0201,-0.0154,-0.0095,-0.0044,-0.0011,-0.0011,0.004,-0.0004,-0.0026,0.0036,0.0038,0.0041,0.009,0.0097,-0.0,-0.0,-0.0,0,-0.0422,-0.0435,-0.0405,-0.0412,-0.0406,-0.0358,-0.0369,-0.0338,-0.029,-0.027,-0.0255,-0.0153,-0.0103,-0.0044,-0.0044,-0.0019,0.0018,-0.0014,0.0031,0.0034,0.0038,0.0088,0.0097,-0.0003,-0.0003,-0.0003,-0.0002,0,-0.046,-0.0472,-0.048,-0.0473,-0.046,-0.0462,-0.0419,-0.0402,-0.0371,-0.0331,-0.0277,-0.0201,-0.0139,-0.0115,-0.0078,-0.0027,-0.0009,0.0013,0.004,0.0036,0.0089,0.0099,-0.0007,-0.0006,-0.0005,-0.0005,0,0,-0.0502,-0.0509,-0.0512,-0.0525,-0.0495,-0.0491,-0.0474,-0.044,-0.0427,-0.0366,-0.0335,-0.025,-0.0205,-0.0165,-0.0105,-0.0045,0.0012,-0.0012,-0.0007,0.0032,0.014,0.0128,0.0139,0.0041,0.0043,0.0044,0.0164,0,-0.0543,-0.0584,-0.0566,-0.0595,-0.061,-0.0564,-0.0553,-0.0513,-0.0464,-0.0419,-0.0326,-0.0275,-0.0224,-0.0193,-0.0125,-0.0021,0.0038,-0.0023,0.0143,0.0147,0.0134,0.015,0.0049,0.0172,0.0175,0.0176,0.0178,0,-0.0584,-0.0607,-0.0654,-0.0664,-0.0665,-0.0672,-0.0644,-0.0626,-0.0543,-0.0501,-0.0422,-0.0347,-0.0244,-0.0207,-0.0029,-0.0071,0.0023,0.0105,0.0112,0.0129,0.0154,0.0181,0.0197,0.0196,0.0194,0.0193,0.0192,0,-0.0634,-0.0665,-0.0711,-0.0714,-0.0715,-0.0726,-0.0719,-0.0657,-0.064,-0.0551,-0.0518,-0.0387,-0.0316,-0.0181,-0.001,-0.0019,0.0186,0.0197,0.0277,0.0278,0.0278,0.0275,0.0317,0.0317,0.0316,0.0316,0.0316,0,-0.0678,-0.0714,-0.0747,-0.0772,-0.0821,-0.0792,-0.0813,-0.0779,-0.0721,-0.0689,-0.057,-0.0504,-0.0305,-0.016,-0.0018,0.0164,0.0184,0.0277,0.0311,0.0249,0.0241,0.0286,0.028,0.0321,0.032,0.0319,0.0318,0,-0.072,-0.0742,-0.0801,-0.0835,-0.0852,-0.0886,-0.0895,-0.0894,-0.0831,-0.0783,-0.0757,-0.0582,-0.0389,-0.0188,0.0052,0.015,0.0325,0.0383,0.0299,0.0326,0.0374,0.0364,0.0475,0.0476,0.0476,0.0477,0.0477,0,-0.0742,-0.0781,-0.0861,-0.0908,-0.0932,-0.0976,-0.1,-0.0961,-0.0944,-0.0822,-0.0794,-0.0604,-0.0468,-0.0132,0.0065,0.0334,0.0367,0.0442,0.0408,0.037,0.0392,0.0381,0.0371,0.0478,0.0478,0.0478,0.0478,0,-0.078,-0.0819,-0.0869,-0.0973,-0.1029,-0.1073,-0.1097,-0.1094,-0.1019,-0.0968,-0.0795,-0.0605,-0.0382,-0.0126,0.0088,0.0276,0.0383,0.0448,0.0448,0.0417,0.0375,0.0394,0.0383,0.048,0.048,0.048,0.048,0,-0.0805,-0.0856,-0.0934,-0.1015,-0.1095,-0.1136,-0.1147,-0.1099,-0.1065,-0.0916,-0.0859,-0.0601,-0.0443,-0.0155,0.0041,0.0227,0.0262,0.0299,0.0307,0.0307,0.0217,0.0136,0.0202,0,0,0,0,0,-0.0816,-0.0874,-0.0964,-0.1049,-0.113,-0.1165,-0.1188,-0.1176,-0.1108,-0.0992,-0.0917,-0.0698,-0.0369,-0.0221,-0.0035,0.0019,0.0265,0.0236,0.0303,0.0491,0.0489,0.041,0,0,0,0,0,0,-0.0824,-0.0913,-0.096,-0.1054,-0.1113,-0.1181,-0.1196,-0.1157,-0.1075,-0.0982,-0.0799,-0.0676,-0.0356,-0.0466,-0.0034,0.0022,0.0082,0.0401,0.0404,0.0492,0.049,0.0488,0.0406,0,0,0,0,0]}]]